Location: Cedar Falls
(42.5280°N, 92.4450°W)
Time: 10:16:45
(UTC-05:00)

NOSS 3-1 (C) - Visible Passes

Search period start: 25 October 2014 00:00
Search period end: 03 November 2014 23:00
Orbit: 892 x 1317 km, 63.4° (Epoch: 19 October)

Date Brightness Start Highest point End Pass type
(mag) Time Alt. Az. Time Alt. Az. Time Alt. Az.
25 Oct 6.2 02:57:50 12° N 02:57:50 12° N 02:59:24 10° NNE visible
25 Oct 5.9 04:45:20 10° NNW 04:50:24 20° NNE 04:55:46 10° ENE visible
25 Oct 4.6 06:35:40 10° NNW 06:42:57 57° NE 06:50:49 10° SE visible
26 Oct 5.9 04:01:37 13° N 04:04:23 16° NNE 04:08:48 10° NE visible
26 Oct 5.1 05:50:34 10° NNW 05:57:27 41° NE 06:04:51 10° ESE visible
27 Oct 6.1 03:18:02 14° N 03:18:15 14° N 03:21:50 10° NE visible
27 Oct 5.5 05:05:31 10° NNW 05:11:48 30° NE 05:18:31 10° E visible
27 Oct 4.1 06:56:01 10° NW 07:03:33 84° WSW 07:11:39 10° SSE visible
28 Oct 6.4 02:34:30 11° NNE 02:34:30 11° NNE 02:35:10 10° NNE visible
28 Oct 5.8 04:21:56 15° N 04:25:59 23° NNE 04:31:52 10° E visible
28 Oct 4.3 06:10:49 10° NNW 06:18:15 69° NE 06:26:16 10° SE visible
29 Oct 5.9 03:38:29 17° N 03:40:02 18° NNE 03:44:58 10° ENE visible
29 Oct 4.8 05:25:55 11° NNW 05:32:49 49° NE 05:40:30 10° ESE visible
30 Oct 6.2 02:55:07 14° NNE 02:55:07 14° NNE 02:57:58 10° NE visible
30 Oct 5.2 04:42:33 18° NNW 04:47:15 35° NE 04:54:22 10° ESE visible
30 Oct 4.0 06:31:16 10° NW 06:38:44 69° WSW 06:46:44 10° SSE visible
31 Oct 5.5 03:59:18 23° N 04:01:31 26° NNE 04:07:53 10° E visible
31 Oct 4.0 05:46:45 14° NW 05:53:30 84° NE 06:01:36 10° SE visible
31 Oct 5.4 19:42:14 10° SE 19:42:23 11° SE 19:42:23 11° SE visible
31 Oct 5.8 21:29:41 10° SW 21:29:53 11° SW 21:29:53 11° SW visible
01 Nov 5.9 03:16:09 20° NNE 03:16:09 20° NNE 03:21:07 10° ENE visible
01 Nov 4.4 05:03:36 25° NNW 05:08:09 59° NE 05:16:03 10° SE visible
01 Nov 4.6 06:52:08 10° NW 06:58:55 36° WSW 07:06:05 10° S visible
01 Nov 4.7 20:44:41 10° SSW 20:47:16 27° SSW 20:47:16 27° SSW visible
02 Nov 6.4 01:33:07 12° NE 01:33:07 12° NE 01:34:09 10° ENE visible
02 Nov 4.9 03:20:35 35° N 03:22:39 42° NE 03:30:06 10° ESE visible
02 Nov 4.1 05:08:03 17° NW 05:13:52 55° WSW 05:21:42 10° SSE visible
02 Nov 4.0 19:00:08 10° S 19:04:36 36° SE 19:04:36 36° SE visible
02 Nov 5.6 20:50:34 10° WSW 20:52:05 18° WSW 20:52:05 18° WSW visible
03 Nov 5.4 02:37:42 30° NE 02:37:42 30° NE 02:43:49 10° E visible
03 Nov 3.9 04:25:11 36° NW 04:28:43 81° WSW 04:36:48 10° SSE visible
03 Nov 5.3 06:14:03 10° WNW 06:18:48 18° WSW 06:23:41 10° SW visible
03 Nov 4.5 18:16:15 10° SSE 18:20:48 23° ESE 18:21:52 22° E visible
03 Nov 4.2 20:04:56 10° SW 20:09:20 48° WSW 20:09:20 48° WSW visible
